Flag for Germany Weather past 2 weeks in Cuxhaven, Lower Saxony, Germany

Now
63 °F

Scattered clouds.


Feels Like: 63 °F
Forecast: 45 / 53 °F
Wind: 22 mph from Southwest

Location: Nordholz

Current Time: May 6, 2015 at 2:29:50 PM

Latest Report: May 6, 2015 at 1:20 PM


Visibility: N/A

Pressure: 29.77 "Hg

Humidity: 49%

Dew point: 43 °F

Location of CuxhavenLocation

Historic Weather in Cuxhaven — Graph

°F

Cuxhaven temperature yesterday

Maximum temperature yesterday: 73 °F (at 1:20 PM)
Minimum temperature yesterday: 50 °F (at 11:20 PM)
Average temperature yesterday: 60 °F

Past Weeks' High & Low Weather Summary

 TemperatureHumidityPressure
High73 °F (May 5, 1:20 PM)100% (Apr 26, 1:20 AM)30.45 "Hg (Apr 26, 1:20 AM)
Low34 °F (Apr 28, 4:20 AM)31% (Apr 29, 3:20 PM)29.39 "Hg (May 5, 9:20 AM)
Average49 °F76%29.86 "Hg
* Reported Apr 21 1:20 PM — May 6 1:20 PM, Cuxhaven, Weather by CustomWeather, © 2015

Note: Actual official high and low records may vary slightly from our data, if they occured in-between our weather recording intervals... More about our weather records

Advertising

Cuxhaven weather history for previous 24 hours

 ConditionsComfort  
Time TempWeatherWind HumidityBarometerVisibility
1:20 PM
Wed, May 6
63 °FScattered clouds.22 mph49%29.77 "HgN/A
12:20 PM63 °FScattered clouds.21 mph52%29.77 "HgN/A
11:20 AM59 °FScattered clouds.16 mph59%29.77 "HgN/A
10:20 AM57 °FPassing clouds.15 mph67%29.77 "HgN/A
9:20 AM55 °FPassing clouds.13 mph67%29.77 "HgN/A
8:20 AM54 °FPassing clouds.12 mph67%29.77 "HgN/A
7:20 AM52 °FScattered clouds.8 mph72%29.77 "HgN/A
6:20 AM50 °FPassing clouds.10 mph71%29.77 "HgN/A
5:20 AM50 °FPassing clouds.10 mph71%29.77 "HgN/A
4:20 AM48 °FPassing clouds.8 mph76%29.77 "HgN/A
3:20 AM50 °FPassing clouds.9 mph71%29.77 "HgN/A
2:20 AM50 °FPassing clouds.8 mph71%29.77 "HgN/A
1:20 AM48 °FPassing clouds.8 mph76%29.77 "HgN/A
12:20 AM50 °FPassing clouds.9 mph76%29.74 "HgN/A
11:20 PM
Tue, May 5
50 °FPassing clouds.12 mph76%29.74 "HgN/A
10:20 PM52 °FPassing clouds.10 mph77%29.74 "HgN/A
9:20 PM55 °FScattered clouds.17 mph67%29.68 "HgN/A
8:59 PM55 °FScattered clouds.18 mph67%29.68 "HgN/A
8:20 PM57 °FPartly sunny.21 mph67%29.65 "HgN/A
7:20 PM59 °FBroken clouds.24 mph72%29.59 "HgN/A
6:20 PM59 °FBroken clouds.17 mph88%29.56 "HgN/A
5:20 PM59 °FLight rain. Partly sunny.12 mph94%29.50 "HgN/A
4:20 PM57 °FThunderstorms. Fog.13 mph94%29.45 "Hg3 mi
3:20 PM54 °FThunderstorms. Broken clouds.15 mph94%29.45 "Hg2 mi
3:02 PM70 °FThunderstorms. Partly sunny.17 mph57%29.42 "Hg4 mi
2:55 PM73 °FThundershowers. Broken clouds.15 mph57%29.39 "Hg5 mi
2:20 PM73 °FBroken clouds.16 mph57%29.39 "HgN/A
Weather by CustomWeather, © 2015

See weather overviewHow to use our weather pages